Regional Weather Roundup
Issued by NWS

Home | Current Version | Previous Version | Text Only | Print | Product List | Glossary Off
Versions: 1 2 3 4 5 6 7 8 9 10 11 12 13 14 15 16 17 18 19 20 21 22 23 24 25 26 27 28 29 30 31 32 33 34 35 36 37 38 39 40 41 42 43 44 45 46 47 48 49 50

000
ASUS43 KMKX 260421
RWRWI

WISCONSIN REGIONAL WEATHER ROUNDUP
NATIONAL WEATHER SERVICE MILWAUKEE/SULLIVAN WI
1100 PM CDT SAT APR 25 2015

NOTE: "FAIR" INDICATES FEW OR NO CLOUDS BELOW 12,000 FEET WITH NO
SIGNIFICANT WEATHER AND/OR OBSTRUCTIONS TO VISIBILITY.

WIZ001-002-006>008-014>016-023>028-260500-
NORTHWEST WISCONSIN

CITY           SKY/WX    TMP DP  RH WIND       PRES   REMARKS
SUPERIOR ARPT  CLEAR     35  25  67 NE6       30.06S WCI  30
ASHLAND        CLEAR     28  24  85 N3        30.05S
HAYWARD        CLEAR     34  21  59 N3        30.01R
SIREN          CLEAR     39  20  46 NE5       30.01R
CUMBERLAND     CLEAR     37  19  48 N8        29.98R WCI  31
RICE LAKE      CLEAR     40  23  49 N13       30.00R WCI  33
CHETEK         CLEAR     44  21  40 N7        29.97R
LADYSMITH      CLEAR     39  22  51 N7        30.00R WCI  34
EAU CLAIRE     CLEAR     47  24  40 NE10      29.94R
MENOMONIE      CLEAR     46  26  44 N8        29.96R
NEW RICHMOND   CLEAR     44  24  45 NE7       29.97R
OSCEOLA        CLEAR     44  20  38 N5        30.01R
$$

WIZ003>005-009-010-017-018-260500-
NORTH CENTRAL WISCONSIN

CITY           SKY/WX    TMP DP  RH WIND       PRES   REMARKS
MANITOWISH WTR CLEAR     34  23  62 NE6       29.99S WCI  29
ARBOR VITAE    CLEAR     39  19  44 NE5       29.98S
WOODRUFF       CLEAR     39  19  44 NE5       29.98S
RHINELANDER    CLEAR     39  22  50 N5        29.98R
EAGLE RIVER    CLEAR     34  18  52 NE5       29.98R WCI  30
LAND O LAKES   CLEAR     33  19  56 N3        30.00S
PHILLIPS       CLEAR     38  22  53 NE8       29.98R WCI  32
TOMAHAWK       CLEAR     41  21  45 CALM      29.97R
MEDFORD        CLEAR     41  21  44 E5        29.96R
MERRILL        CLEAR     34  23  63 CALM      29.97R
$$

WIZ029-030-035-036-043>047-260500-
CENTRAL WISCONSIN

CITY           SKY/WX    TMP DP  RH WIND       PRES   REMARKS
WAUSAU         CLEAR     40  19  43 CALM      29.95R
MOSINEE        CLEAR     39  18  41 NE5       29.97R
MARSHFIELD     CLEAR     41  19  41 E5        29.95R
STEVENS POINT  CLEAR     33  21  61 CALM      29.96R
WAUPACA        CLEAR     39  18  42 N3        29.96R
WAUTOMA        CLEAR     40  12  32 N5        29.94S
WISC RAPIDS    CLEAR     36  16  44 CALM      29.96R
CAMP DOUGLAS   CLEAR     39  14  36 NE1       29.93R
$$

WIZ011>013-019>022-031-037>040-048>050-260500-
NORTHEAST WISCONSIN

CITY           SKY/WX    TMP DP  RH WIND       PRES   REMARKS
ANTIGO         CLEAR     34  26  71 NE3       29.96R
SHAWANO        CLEAR     42  26  53 NE7       29.96S
OCONTO         CLEAR     39  22  50 NE7       29.97R WCI  34
STURGEON BAY   CLEAR     37  23  56 N9        29.98S WCI  31
GREEN BAY      CLEAR     43  29  57 NE16      29.95R
MANITOWOC      FAIR      39  25  57 N8        29.93S WCI  33
APPLETON       PTCLDY    37  18  44 NE9       29.93S WCI  31
CLINTONVILLE   CLEAR     36  19  51 NE5       29.96R WCI  32
OSHKOSH        CLEAR     43  24  47 NE13      29.92S
$$

WIZ032>034-041-042-053>061-260500-
SOUTHWEST WISCONSIN

CITY           SKY/WX    TMP DP  RH WIND       PRES   REMARKS
LA CROSSE      FAIR      44  21  40 CALM      29.92R
SPARTA         CLEAR     33  20  59 CALM      29.94R
VIROQUA        FAIR      38  19  44 E7        29.92R WCI  33
BOSCOBEL       CLEAR     36  28  73 CALM      29.92R
PRAIRIE DU CHI CLEAR     37  31  76 CALM      29.92R
PLATTEVILLE    CLEAR     37  32  83 NE8       29.90S WCI  30
$$

WIZ056-057-062-063-064-067-068-260500-
SOUTH CENTRAL WISCONSIN

CITY           SKY/WX    TMP DP  RH WIND       PRES   REMARKS
REEDSBURG      CLEAR     40  10  29 CALM      29.92S
BARABOO/DELLS  CLEAR     38  10  31 NE5       29.92R WCI  35
LONE ROCK      CLEAR     38  23  55 SE3       29.91S
MINERAL POINT  CLEAR     43  27  52 NE5       29.90S
MADISON        PTCLDY    39  26  59 N6        29.91R WCI  35
MIDDLETON      CLEAR     37  28  69 N6        29.91S WCI  33
WATERTOWN      CLEAR     38  18  43 NE5       29.90S WCI  35
MONROE         CLEAR     37  32  81 N10       29.88R WCI  30
JANESVILLE     CLEAR     39  28  65 NE6       29.89R WCI  35
$$

WIZ051-052-058>065-066-070>072-260500-
SOUTHEAST WISCONSIN

CITY           SKY/WX    TMP DP  RH WIND       PRES   REMARKS
MILWAUKEE      PTCLDY    42  24  49 N13G22    29.88S
WAUKESHA       CLEAR     36  21  55 N5        29.90S WCI  32
MILWAUKEE/TIMM FAIR      37  21  52 N8        29.89S WCI  31
RACINE         PTCLDY    40  28  62 N17       29.88S WCI  31
BURLINGTON     CLEAR     37  21  53 N6        29.88S WCI  32
KENOSHA        CLOUDY    41  28  60 N8        29.86S
FOND DU LAC    CLEAR     39  20  46 NE8       29.92S WCI  33
SHEBOYGAN      CLEAR     39  23  52 N8        29.91S WCI  33
WEST BEND      CLEAR     37  21  52 N8        29.89F WCI  31
JUNEAU         CLEAR     38  19  46 N7        29.92S WCI  33
$$

LSZ147-162-260500-
LAKE SUPERIOR

STATION/POSITION TIME  TEMP    WIND        PRES    WAVE
                       AIR SEA DIR/SP/G            HT/PER
                 (UTC) (F)     (DEG/KT/KT) (MB)    (FT/S)
W MID LAKE BUOY  0350   35 34  360/  6/  6 1019.2R   1/ 4
DEVILS ISLAND    0400   36      20/ 10/ 10 1018.6F
PORT WING        0340   33     110/  1/  3 1018.3R
SAXON HARBOR     0300   31        CALM     1016.9R
$$

LMZ867-665-643>646-260500-
LAKE MICHIGAN

STATION/POSITION TIME  TEMP    WIND        PRES    WAVE
                       AIR SEA DIR/SP/G            HT/PER
                 (UTC) (F)     (DEG/KT/KT) (MB)    (FT/S)
CHAMBERS ISLAND  0300   40     350/ 12/ 16 1015.2R
NORTHPORT PIER   0300   40     350/ 13/ 16 1014.9R
SISTER BAY       0317   39     360/ 14/ 20   N/A
KEWAUNEE LAKESHO 0300   42      10/ 12/ 16 1012.8R
SHEBOYGAN LAKESH 0400   42      10/ 18/ 20 1013.3S
PORT WASHINGTON  0340   42     340/  5/ 11 1012.9S
MILWAUKEE LAKESH 0400   44     360/ 16/ 21   N/A
KENOSHA   LAKESH 0400   43      10/ 18/ 21 1011.2R
$$

TC  - TEMPERATURE IN CELSIUS
VSB - VISIBILITY IN STATUTE MILES
WCI - WIND CHILL INDEX
HX  - HEAT INDEX



USA.gov is the U.S. government's official web portal to all federal, state and local government web resources and services.